Pottstown, PA

7:02 AM EDT on May 27, 2017 (GMT -0400)
Pottstown Limerick

Weather History for KPTW - October, 2012

Change the Weather History Date:

Friday, October 26, 2012

  Actual Average (KRDG) Record (KRDG)
Temperature  
Mean Temperature 62 °F -  
Max Temperature 64 °F 58 °F 80 °F (1984)
Min Temperature 59 °F 38 °F 27 °F (1987)
Degree Days  
Heating Degree Days 4    
Growing Degree Days 12 (Base 50)    
Moisture  
Dew Point 57 °F    
Average Humidity 86    
Maximum Humidity 96    
Minimum Humidity 75    
Precipitation  
Precipitation 0.00 in - - ()
Sea Level Pressure  
Sea Level Pressure 30.18 in    
Wind  
Wind Speed 1 mph (ENE)    
Max Wind Speed 5 mph    
Max Gust Speed -    
Visibility 9 miles    
Events      
Averages and records for this station are not official NWS values.
T = Trace of Precipitation, MM = Missing Value Source: NWS Daily Summary

Daily Weather History Graph

Daily Weather History Graph

Search for Another Location

Airport or City:

Trip Planner

Search our weather history database for the weather conditions in past years. The results will help you decide how hot, cold, wet, or windy it might be!

Date:

Astronomy

Oct. 26, 2012 Rise Set
Actual Time 7:25 AM EDT 6:06 PM EDT
Civil Twilight 6:57 AM EDT 6:34 PM EDT
Nautical Twilight 6:25 AM EDT 7:05 PM EDT
Astronomical Twilight 5:54 AM EDT 7:37 PM EDT
Moon 4:21 PM EDT (10/26) 4:19 AM EDT (10/26)
Length of Visible Light 11h 36m
Length of Day
10h 40m
Waxing Gibbous, 91% of the Moon is Illuminated
Oct 26
Waxing Gibbous
Oct 29
Full
Nov 6
Last Quarter
Nov 13
New
Nov 20
First Quarter

Hourly Weather History & Observations

Time (EDT) Temp. Dew Point Humidity Pressure Visibility Wind Dir Wind Speed Gust Speed Precip Events Conditions
12:26 AM 60.8 °F 57.2 °F 88% 30.22 in 7.0 mi Calm Calm - N/A   Overcast
12:54 AM 59.0 °F 57.9 °F 96% 30.21 in 6.0 mi Calm Calm - N/A   Overcast
2:54 AM 59.0 °F 57.0 °F 93% 30.21 in 6.0 mi Calm Calm - N/A   Overcast
3:38 AM 59.0 °F 57.2 °F 94% 30.21 in 7.0 mi Calm Calm - N/A   Overcast
3:54 AM 59.0 °F 57.0 °F 93% 30.20 in 7.0 mi NE 3.5 mph - N/A   Overcast
4:08 AM 59.0 °F 57.2 °F 94% 30.21 in 7.0 mi Calm Calm - N/A   Overcast
4:25 AM 59.0 °F 57.2 °F 94% 30.21 in - North - - N/A   Unknown
4:54 AM 59.0 °F 57.0 °F 93% 30.21 in 7.0 mi Calm Calm - N/A   Unknown
5:01 AM 59.0 °F 57.2 °F 94% 30.21 in 7.0 mi Calm Calm - N/A   Overcast
5:54 AM 59.0 °F 57.0 °F 93% 30.20 in 8.0 mi Calm Calm - N/A   Overcast
6:22 AM 59.0 °F 57.2 °F 94% 30.21 in 8.0 mi Calm Calm - N/A   Overcast
6:30 AM 59.0 °F 55.4 °F 88% 30.21 in 9.0 mi Calm Calm - N/A   Unknown
6:54 AM 59.0 °F 57.0 °F 93% 30.20 in 10.0 mi Calm Calm - N/A   Overcast
7:05 AM 59.0 °F 57.2 °F 94% 30.22 in - Calm Calm - N/A   Unknown
7:54 AM 59.0 °F 57.0 °F 93% 30.22 in 9.0 mi Calm Calm - N/A   Overcast
8:54 AM 59.0 °F 57.0 °F 93% 30.23 in 10.0 mi Calm Calm - N/A   Overcast
9:54 AM 60.1 °F 57.0 °F 90% 30.22 in 10.0 mi ENE 3.5 mph - N/A   Unknown
10:54 AM 62.1 °F 57.0 °F 84% 30.22 in 10.0 mi East 4.6 mph - N/A   Unknown
11:03 AM 62.6 °F 57.2 °F 82% 30.23 in 10.0 mi Variable 3.5 mph - N/A   Overcast
11:54 AM 64.0 °F 57.9 °F 80% 30.22 in 10.0 mi Calm Calm - N/A   Overcast
12:12 PM 64.4 °F 57.2 °F 77% 30.21 in - North - - N/A   Unknown
12:54 PM 64.0 °F 57.0 °F 78% 30.19 in 10.0 mi Calm Calm - N/A   Unknown
1:34 PM 64.4 °F 57.2 °F 77% 30.17 in 10.0 mi Calm Calm - N/A   Overcast
1:54 PM 64.9 °F 57.0 °F 75% 30.16 in 10.0 mi East 3.5 mph - N/A   Overcast
2:39 PM 64.4 °F 57.2 °F 77% 30.16 in 10.0 mi Calm Calm - N/A   Overcast
2:54 PM 64.9 °F 57.0 °F 75% 30.15 in 10.0 mi Calm Calm - N/A   Overcast
3:54 PM 64.9 °F 57.9 °F 78% 30.14 in 10.0 mi NE 3.5 mph - N/A   Overcast
4:54 PM 64.0 °F 57.0 °F 78% 30.12 in 10.0 mi ENE 4.6 mph - N/A   Overcast
5:21 PM 64.4 °F 57.2 °F 77% 30.12 in 10.0 mi ENE 3.5 mph - N/A   Overcast
5:54 PM 64.0 °F 57.0 °F 78% 30.12 in - ENE 3.5 mph - N/A   Unknown
6:54 PM 64.0 °F 57.0 °F 78% 30.12 in 10.0 mi ENE 3.5 mph - N/A   Overcast
7:54 PM 63.0 °F 57.0 °F 81% 30.12 in 10.0 mi Calm Calm - N/A   Overcast
8:54 PM 59.0 °F 57.0 °F 93% 30.13 in 10.0 mi Calm Calm - N/A   Mostly Cloudy
9:54 PM 60.1 °F 57.0 °F 90% 30.12 in 10.0 mi ENE 3.5 mph - N/A   Overcast
10:54 PM 61.0 °F 57.0 °F 87% 30.12 in 10.0 mi ENE 3.5 mph - N/A   Overcast
11:54 PM 61.0 °F 57.0 °F 87% 30.10 in 10.0 mi Calm Calm - N/A   Overcast